Presure
135 134 143 136 143 193 195 202 182 200 150 201 214 226 210 259 181 201 225 362 366 338 190 294 124 143 270 243 127 128 141 141 139 145 188 189 218 219 214 167 180 168 168 182 155
158 163 131 117 143 136 176 210 184 183 200 201 212 230 234 252 263 266 130 357 343 350 215 130 132 142 138 240 143 141 135 138 151 219 147 192 214 206 219 217 184 164 182 191 180
123 131 128 165 140 187 139 200 181 196 212 231 206 240 228 241 263 276 261 358 338 331 358 331 129 344 353 147 132 131 131 135 141 162 149 203 179 206 198 203 204 218 249 203 185
180 119 154 129 174 193 127 193 197 199 209 235 203 235 221 234 250 278 259 300 344 326 322 348 325 200 315 378 170 127 281 253 141 233 152 151 188 192 193 196 202 222 171 173 178
140 130 175 129 133 134 188 190 160 194 211 205 226 229 226 233 255 256 263 268 351 331 318 323 216 320 340 319 384 271 245 269 247 231 218 151 165 189 190 187 191 200 171 167 172
140 118 105 135 131 143 187 190 172 204 210 204 217 231 229 221 235 260 272 255 293 346 324 320 334 317 341 335 363 391 261 249 257 235 202 220 193 195 200 189 204 193 221 198 168
109 182 166 193 140 188 184 176 188 196 208 203 186 239 221 217 235 251 250 260 263 353 336 318 336 144 333 336 350 375 358 246 260 233 140 145 216 196 86 83 200 197 198 214 203
174 132 191 170 149 134 185 189 190 200 209 197 192 231 222 227 227 236 250 260 247 268 353 285 323 326 331 336 276 360 363 226 250 226 226 129 198 197 199 198 199 172 81 135 216
99 172 104 118 155 132 183 202 191 174 208 195 203 191 181 223 213 227 241 239 257 251 316 343 320 329 339 337 336 354 349 272 244 226 219 175 193 208 186 200 202 187 200 195 218
132 154 111 148 180 187 174 181 174 203 203 209 144 164 224 214 223 225 229 244 239 254 253 360 335 320 335 346 331 338 337 335 220 219 234 220 207 209 200 190 198 202 204 197 193
176 181 122 180 190 191 151 185 192 201 202 214 193 170 211 218 183 204 228 233 246 236 245 258 357 330 326 353 338 327 333 337 250 219 227 218 208 198 200 185 188 201 200 215 199
183 129 162 165 179 175 174 198 183 204 204 220 188 211 157 170 170 192 222 224 233 233 236 239 261 352 331 345 344 328 325 330 340 243 228 222 206 208 196 196 205 189 202 200 186
191 191 164 162 181 190 192 182 191 154 188 207 194 208 202 193 203 219 232 225 235 232 235 236 250 259 360 336 360 346 326 323 327 323 221 226 206 213 200 189 196 194 200 190 202
181 194 191 184 163 180 198 180 193 173 160 201 210 200 202 204 171 203 228 223 222 215 230 237 231 241 256 321 342 360 346 327 321 328 242 228 212 206 206 197 196 197 186 214 224
195 177 182 190 193 201 193 188 200 200 148 188 195 195 218 207 197 216 229 226 222 222 227 228 236 230 239 255 337 346 361 351 330 323 299 214 220 189 207 204 196 197 159 187 194
196 151 190 197 192 194 185 191 207 186 197 183 206 216 206 199 201 191 219 222 208 215 220 222 223 231 227 242 252 270 373 358 355 334 323 285 212 207 206 205 199 197 198 192 197
191 190 183 194 160 199 179 190 194 169 209 181 201 210 196 203 209 202 208 216 210 209 218 225 216 219 233 237 239 250 268 379 374 363 338 328 292 231 215 200 205 200 199 197 204
199 196 197 196 191 169 192 191 188 173 182 205 200 201 191 198 176 197 201 210 220 209 205 227 226 218 220 234 235 232 248 265 379 418 376 346 327 247 241 214 200 194 207 198 202
188 171 189 194 186 177 190 190 165 191 197 190 196 205 188 191 167 207 197 183 213 213 208 204 237 222 220 217 239 242 234 248 260 359 423 391 343 286 258 230 207 201 195 190 197
189 194 197 192 178 184 195 190 196 202 175 174 205 205 193 192 180 200 211 160 213 210 201 204 241 234 223 216 233 229 251 230 245 257 346 417 394 342 266 253 249 215 218 198 200
216 200 194 201 198 198 194 161 198 199 178 179 163 200 203 193 174 195 162 152 207 216 211 197 217 184 226 210 190 228 229 237 252 241 253 272 409 415 356 264 243 243 236 225 206
219 207 201 196 197 199 190 197 210 230 171 197 200 192 195 189 186 191 151 200 206 211 213 207 203 234 165 224 220 223 232 224 226 257 235 245 263 297 432 408 255 243 243 237 221
204 174 179 163 172 207 205 211 208 189 185 181 188 189 196 173 201 168 199 172 205 206 214 198 239 242 227 225 178 187 185 222 226 223 258 233 240 258 282 385 418 256 246 244 234
202 166 189 139 191 152 148 195 159 168 200 191 186 179 208 209 205 212 146 205 189 214 218 187 218 243 211 222 217 199 219 225 216 229 224 248 256 234 249 277 444 399 265 247 239
157 149 172 149 201 171 143 194 194 193 190 189 200 208 209 198 214 209 205 214 209 209 201 211 242 240 231 228 219 217 215 172 188 225 224 222 230 262 233 242 269 438 389 316 256
212 205 196 198 198 197 193 193 198 193 193 214 203 190 196 194 203 201 204 190 213 213 194 209 240 226 224 223 229 224 221 222 196 222 227 225 220 220 242 260 236 263 396 385 380
194 153 189 192 165 202 197 200 198 203 208 198 197 209 208 206 220 198 209 218 213 216 213 190 209 186 228 194 201 212 201 239 225 228 226 223 228 191 212 229 258 232 252 321 379
Wind_Speed
23 19 20 23 30 49 49 52 49 55 36 53 60 62 55 69 41 44 52 30 24 19 23 18 29 26 87 80 32 35 39 43 47 45 74 63 77 75 71 61 65 60 58 63 54
25 30 20 21 32 32 45 53 50 52 58 54 62 64 65 72 71 71 28 32 25 20 34 24 28 42 38 79 44 42 43 47 47 79 44 74 74 70 70 70 66 62 66 65 63
16 20 21 35 31 47 32 52 48 56 63 67 60 67 65 71 80 75 71 34 29 24 19 24 27 19 22 34 42 40 47 45 51 57 49 77 63 70 67 66 65 69 57 71 66
39 15 31 25 40 49 32 50 54 58 62 71 59 69 63 69 78 79 74 76 29 28 24 16 17 36 21 21 40 39 100 92 53 85 53 50 73 76 72 69 66 69 66 65 66
20 24 39 25 30 35 46 49 42 55 64 61 70 70 68 70 80 78 77 80 31 27 26 22 26 14 13 22 31 50 84 99 89 87 84 52 57 76 76 68 72 67 70 64 64
35 29 23 35 30 36 47 50 45 62 65 62 67 70 69 65 72 82 80 76 79 30 27 25 15 10 11 19 26 48 90 88 93 90 77 85 79 79 79 73 74 69 65 65 67
29 45 39 49 33 49 47 40 51 56 66 61 51 71 67 65 74 83 80 78 80 40 27 26 19 32 8 16 23 42 70 87 94 90 48 51 81 79 28 34 74 69 68 62 63
42 27 49 36 38 36 49 54 53 61 67 56 54 72 66 70 70 75 80 83 76 84 33 20 24 13 6 10 26 37 59 76 90 87 87 39 72 83 81 83 78 65 28 47 66
29 44 33 26 41 35 50 62 54 51 68 55 64 55 51 66 63 70 79 74 80 78 64 26 27 17 7 7 22 33 56 85 87 86 86 62 80 81 74 79 77 74 74 73 67
27 36 30 38 43 51 42 49 42 61 63 65 36 43 71 66 66 68 71 76 74 78 78 33 23 23 11 8 23 33 53 72 79 81 83 84 85 85 84 75 77 78 75 73 71
43 42 33 47 53 54 37 54 56 61 62 69 52 47 62 67 47 56 66 71 74 70 76 79 25 21 17 6 19 32 47 59 87 81 81 87 87 85 83 73 76 78 76 75 69
48 35 43 37 43 43 46 59 49 62 64 69 46 62 40 44 42 50 64 64 69 67 69 72 78 23 18 7 13 30 43 53 65 86 82 87 86 87 81 82 83 79 83 72 73
48 49 42 38 42 52 53 47 53 34 54 65 45 58 57 51 56 61 65 63 68 66 67 67 69 73 15 13 6 20 39 49 60 80 83 86 87 85 86 78 83 80 78 76 76
43 46 48 42 42 41 59 43 53 45 38 64 62 50 54 55 44 52 62 59 59 53 64 65 59 63 68 42 7 13 28 46 55 66 89 85 87 86 86 84 82 82 77 57 57
46 38 42 51 51 55 50 48 57 58 33 44 54 51 59 53 49 62 61 58 58 57 58 58 62 57 59 61 33 4 15 34 52 61 75 83 87 60 86 85 83 84 67 80 83
44 41 47 51 51 52 46 48 58 47 56 40 59 60 55 51 53 49 60 58 49 52 54 52 52 54 49 54 53 57 5 19 42 58 69 83 82 84 85 87 87 88 89 86 86
44 45 41 51 42 51 44 48 53 41 62 40 56 57 51 55 57 53 58 58 54 51 51 54 46 46 51 49 46 47 49 10 21 45 63 75 92 91 88 81 88 89 89 85 91
44 47 48 51 48 41 53 51 44 45 38 55 55 52 46 52 31 52 57 56 56 52 46 54 52 44 43 47 43 40 41 46 13 12 43 66 80 96 96 91 85 78 90 84 84
39 41 48 53 47 45 52 51 33 47 53 49 54 55 44 48 27 61 48 35 55 54 49 43 54 46 43 36 43 40 36 37 41 20 9 39 68 99 105 95 89 87 83 79 86
42 48 51 51 44 49 55 53 55 55 42 41 55 56 51 50 40 54 57 25 52 54 47 45 53 49 43 36 41 36 35 31 32 36 21 12 38 72 106 102 103 93 96 88 91
41 47 49 52 54 54 55 37 56 51 43 45 38 52 54 52 40 58 23 22 54 51 55 40 42 32 43 33 19 37 34 32 28 25 28 31 14 37 71 105 98 105 103 101 95
39 42 48 50 52 53 51 54 59 54 43 51 53 52 53 49 50 56 26 58 54 51 50 54 49 43 26 40 32 37 33 26 25 26 19 18 26 24 33 50 100 105 107 104 99
39 37 41 39 41 52 54 57 51 45 47 47 51 52 57 47 57 42 52 38 54 55 50 52 48 36 40 44 24 23 18 30 28 20 25 17 13 19 23 15 41 106 107 108 103
39 41 48 37 51 43 41 53 41 46 55 52 54 50 62 61 59 56 33 58 54 51 48 44 50 40 30 37 42 31 31 33 24 27 22 25 18 12 14 21 29 32 109 111 110
42 42 48 44 53 48 43 57 55 55 55 57 62 63 59 57 57 57 58 56 54 55 55 57 42 37 43 35 42 43 31 26 28 29 26 22 23 21 16 15 21 21 36 92 115
51 53 55 54 55 56 56 59 62 60 61 65 63 59 61 59 59 57 57 61 56 52 60 53 37 36 43 44 36 41 37 36 27 34 31 27 24 22 21 23 17 21 24 32 40
52 51 52 54 54 62 62 66 68 70 69 66 64 66 66 64 62 60 59 57 56 52 58 57 47 55 37 42 55 51 44 37 38 34 35 33 31 28 22 23 26 19 19 17 30
Wind_Direction
320 323 332 338 336 354 352 353 345 349 340 343 349 347 341 349 319 339 333 336 326 317 268 244 249 250 229 229 235 237 235 230 234 236 225 230 229 232 234 228 226 227 226 232 232
335 337 317 298 337 329 347 353 346 341 345 344 350 349 349 353 353 353 285 345 342 309 268 256 255 252 253 227 242 235 243 242 233 220 235 225 226 226 231 234 231 229 228 229 232
298 326 320 331 335 347 328 353 343 346 352 353 349 352 352 356 0 358 356 350 351 346 326 282 254 268 262 249 238 245 249 248 243 233 233 218 231 227 223 227 230 236 231 231 231
333 284 327 332 338 349 319 351 352 350 353 357 348 355 354 359 1 4 2 10 353 355 348 325 296 249 263 237 243 245 215 216 244 214 233 234 224 224 223 223 227 232 230 228 229
310 316 331 329 329 325 347 349 333 348 355 351 356 356 357 0 3 7 6 9 1 357 355 350 264 279 263 239 218 222 212 213 211 210 217 234 232 225 223 224 223 227 232 231 228
307 306 314 326 327 327 342 347 338 351 356 353 356 357 359 359 4 9 9 8 16 1 0 0 346 285 274 224 217 205 209 210 210 209 217 212 219 221 223 224 228 223 232 232 231
277 328 326 333 330 339 342 341 347 352 355 354 344 359 360 360 6 10 14 11 14 11 5 5 6 250 298 222 212 204 202 207 208 206 237 236 211 217 235 247 227 223 228 234 234
319 309 325 323 328 327 339 342 346 351 356 352 349 0 1 3 5 11 14 14 12 18 12 352 11 4 325 221 225 205 199 207 206 204 207 227 212 216 220 223 228 223 244 233 235
306 321 304 307 334 325 336 340 346 340 354 354 356 351 354 2 3 11 12 17 15 16 20 12 12 15 5 216 204 206 198 201 204 204 206 219 214 211 224 221 225 227 226 226 233
304 314 312 317 325 331 326 336 338 344 353 356 334 335 357 0 6 9 13 15 19 18 19 20 14 16 18 189 202 206 198 200 207 207 207 204 208 209 216 224 223 230 228 228 227
316 319 302 326 326 330 322 333 339 342 351 351 356 348 357 0 356 5 12 15 17 22 20 23 24 19 19 188 203 202 201 203 205 208 206 205 208 216 215 226 229 228 233 233 231
309 300 318 309 319 324 323 332 335 340 347 349 353 357 333 345 352 1 7 14 18 21 23 21 25 26 19 23 202 205 202 203 206 209 206 206 212 209 218 221 223 232 232 233 232
307 311 310 306 316 324 328 326 333 324 346 350 350 356 354 355 355 2 7 10 15 18 20 23 23 27 24 19 215 212 207 205 207 205 208 207 213 209 216 226 225 230 233 237 238
303 308 311 310 310 317 323 323 332 330 325 348 350 349 355 355 346 1 6 8 11 18 18 21 23 23 29 31 1 222 217 211 209 210 209 209 214 214 213 220 224 228 234 227 236
303 304 311 312 315 318 323 324 328 332 321 344 348 348 353 354 356 1 4 7 8 13 18 19 20 25 23 30 32 315 230 221 214 212 213 216 213 228 215 217 221 224 229 237 239
302 301 307 308 314 318 320 324 325 329 338 339 345 348 351 352 353 352 360 3 3 9 12 17 20 20 24 22 30 32 264 239 225 218 214 215 220 223 219 219 221 226 228 236 237
294 300 305 310 307 315 313 321 327 317 330 333 343 346 348 351 350 353 354 357 0 5 6 10 17 18 18 22 22 30 31 359 240 228 221 216 209 221 222 228 222 227 229 234 235
288 297 301 306 308 308 315 321 322 319 325 330 339 340 341 347 341 348 350 350 352 357 3 4 6 12 16 17 21 21 28 30 2 268 231 224 214 218 221 225 232 238 230 238 237
302 294 302 301 305 306 312 316 314 327 325 330 334 336 335 340 329 343 344 342 348 349 353 0 357 4 6 13 13 16 18 27 29 14 276 230 223 213 218 226 233 237 238 246 238
297 292 295 297 301 304 308 310 313 318 313 315 327 329 331 334 330 337 338 323 342 343 346 350 355 351 360 3 4 13 13 15 26 31 24 262 229 224 218 222 223 234 232 240 242
285 285 291 292 295 302 304 308 311 318 307 315 317 324 327 330 325 332 318 307 337 340 338 338 339 326 348 355 342 360 7 12 18 25 35 38 258 237 230 222 228 228 230 234 240
279 280 286 291 295 297 299 306 306 304 305 320 323 321 325 324 326 326 306 329 331 332 333 334 338 337 302 342 347 347 353 0 11 12 13 29 27 24 247 239 229 230 232 234 237
282 292 292 300 300 292 297 302 312 312 309 308 315 316 319 315 323 312 318 312 324 325 328 328 333 328 330 331 301 327 311 347 348 358 2 353 9 18 21 268 251 230 233 236 238
279 287 293 297 297 303 305 306 303 307 312 312 307 311 315 314 316 316 298 318 321 320 325 323 327 324 320 324 326 315 327 333 332 338 344 353 353 340 1 4 274 251 229 232 237
285 291 295 299 299 296 301 303 306 306 305 306 306 308 311 310 314 312 313 314 314 315 318 320 327 323 314 318 318 320 316 282 298 328 327 329 335 350 324 340 352 253 240 232 233
280 284 287 291 294 297 299 301 303 302 302 304 304 307 306 308 309 309 309 312 311 308 314 317 325 322 311 314 311 308 311 313 315 315 317 318 318 318 341 344 324 342 252 246 245
290 298 293 295 296 297 299 301 299 298 300 301 304 305 305 307 307 306 307 308 308 310 307 310 307 313 310 313 315 307 315 317 309 304 306 308 305 282 298 315 335 307 330 300 249